Regional Weather Roundup
Issued by NWS Cleveland, OH

Home | Current Version | Previous Version | Graphics & Text | Print | Product List | Glossary On
Versions: 1 2 3 4 5 6 7 8 9 10 11 12 13 14 15 16 17 18 19 20 21 22 23 24 25 26 27 28 29 30 31 32 33 34 35 36 37 38 39 40 41 42 43 44 45 46 47 48 49 50
000
ASUS41 KCLE 300810
RWRCLE
OHIO REGIONAL WEATHER ROUNDUP
NATIONAL WEATHER SERVICE WILMINGTON, OH
400 AM EDT TUE JUN 30 2015

NOTE: "FAIR" INDICATES FEW OR NO CLOUDS BELOW 12,000 FEET WITH NO
SIGNIFICANT WEATHER AND/OR OBSTRUCTIONS TO VISIBILITY.

OHZ001>008-015>018-024>027-034-035-043-044-300900-
   NORTHWEST OHIO

CITY           SKY/WX    TMP DP  RH WIND       PRES   REMARKS
DEFIANCE       CLOUDY    62  60  93 CALM      29.81S FOG
FINDLAY        CLOUDY    63  61  93 W6        29.80S
TOLEDO EXPRESS CLOUDY    62  59  90 W5        29.80S
TOLEDO EXEC    MOCLDY    63  59  87 W3        29.81S
LIMA           FOG       61  60  97 SW5       29.81F VSB 1/2
$$

OHZ009>014-019>023-028>033-038-089-300900-
   NORTHEAST OHIO

CITY           SKY/WX    TMP DP  RH WIND       PRES   REMARKS
CLE-HOPKINS    CLOUDY    62  60  93 CALM      29.81S
CLE-LAKEFRONT  CLOUDY    64  59  83 SE3       29.78F
CUY CO. ARPT   NOT AVBL
LORAIN-ELYRIA  CLOUDY    62  60  93 SW3       29.80S FOG
ASHTABULA      CLOUDY    62  60  93 SE3       29.82S
AKRON-CANTON   CLOUDY    63  60  90 S6        29.81S FOG
WOOSTER        CLOUDY    62  61  96 SW3       29.81S FOG
MANSFIELD      CLOUDY    62  62 100 W7        29.81S
YOUNGSTOWN     CLOUDY    61  59  93 SE6       29.81F
$$

OHZ042-051>053-060>062-070>072-077>081-300900-
  SOUTHWEST OHIO

CITY           SKY/WX    TMP DP  RH WIND       PRES   REMARKS
CINC-COVINGTON CLEAR     65  64  97 SW6       29.83F
CINC-LUNKEN    CLEAR     66  65  96 CALM      29.83F
HAMILTON       FOG       63  62  97 CALM      29.83S VSB 3/4
DAYTON         MOCLDY    62  61  96 CALM      29.82F FOG
WRIGHT-PAT AFB PTCLDY    61  61 100 N2        29.81F
DAYTON GENERAL FOG       63  62  97 S5        29.81F VSB 1/2
WILMINGTON     CLOUDY    66  64  93 SW8       29.82F FOG
$$

OHZ036-037-039>041-045>050-054>059-063>069-073>076-082>088-300900-
  CENTRAL AND SOUTHEAST OHIO

CITY           SKY/WX    TMP DP  RH WIND       PRES   REMARKS
COLUMBUS       CLOUDY    61  61 100 CALM      29.81S FOG
OSU AIRPORT    FOG       62  61  96 NW3       29.81F VSB 1/4
BOLTON FIELD   FOG       60  60 100 CALM      29.82S VSB 1/4
RICKENBACK AFB FOG       63  63  99 CALM      29.81S VSB 1/2
NEWARK         CLEAR     64  62  93 SW3       29.81S
MARION         CLOUDY    61  60  97 W3        29.82S FOG
LANCASTER      CLOUDY    66  64  93 W6        29.82F FOG
ZANESVILLE     MOCLDY    66  63  90 CALM      29.82S FOG
NEW PHILLY     CLOUDY    63  62  97 SE5       29.82S
$$


USA.gov is the U.S. government's official web portal to all federal, state and local government web resources and services.